Location: Cartignies
(50.0929°N, 3.8447°E)
Time: 14:46:32
(UTC+00:00)

CZ-2D R/B - Pass Details

Date: 12 January 2026
Orbit: 526 x 595 km, 98.0° (Epoch: 16 February)

Event Time Altitude Azimuth Distance (km) Brightness Sun altitude
Rises 17:03:32 0° 132° (SE) 2,684 6.6 -8.9°
Reaches altitude 10° 17:05:57 10° 118° (ESE) 1,789 5.6 -9.2°
Maximum altitude 17:09:02 24° 64° (ENE) 1,148 4.3 -9.7°
Drops below altitude 10° 17:12:07 10° 11° (N) 1,784 5.6 -10.1°
Sets 17:14:31 0° 357° (N) 2,676 6.6 -10.5°
